Location: Unspecified
(51.5147°N, 7.4673°E)
Time: 06:24:45
(UTC+01:00)

A-11 Canister half - Pass Details

Date: 24 February 2026
Orbit: 1524 x 1683 km, 47.3° (Epoch: 14 March)

Event Time Altitude Azimuth Distance (km) Brightness Sun altitude
Rises 22:06:28 0° 286° (WNW) 4,680 12.4 -37.0°
Reaches altitude 10° 22:10:14 10° 274° (W) 3,693 11.5 -37.4°
Maximum altitude 22:17:05 24° 226° (SW) 2,766 10.3 -38.2°
Enters shadow 22:17:35 24° 221° (SW) 2,772 10.2 -38.3°
